Simultaneous Nadir Overpasses (SNOs) Predictions

Prediction of SNOs between AQUA and METOP-B Satellite Orbit:

Table of predicted SNOs for the next 14.0 days since TLE Epoch: 11/28/2020
Index Date (AQUA) Time (AQUA) Lat,Lon (AQUA) SZA (AQUA ) Date (METOP-B) Time (METOP-B) Lat,Lon (METOP-B) SZA (METOP-B ) Distance(km) Time Diff (sec)
1 11/29/2020 15:55:26 -73.73, 115.55 84.72 11/29/2020 15:54:30 -73.75, 115.45 84.70 3.63 56
2 11/29/2020 16:44:56 73.84, -77.05 95.40 11/29/2020 16:45:08 73.85, -76.96 95.41 3.30 12
3 11/29/2020 17:34:31 -74.34, 89.43 84.08 11/29/2020 17:35:39 -74.37, 91.64 84.08 66.39 68
4 12/02/2020 11:29:42 -73.76,-178.07 84.26 12/02/2020 11:28:53 -73.75,-178.15 84.27 2.57 49
5 12/02/2020 12:19:11 73.81, -10.56 95.81 12/02/2020 12:19:32 73.80, -10.68 95.80 3.83 21
6 12/05/2020 07:03:58 -73.79,-111.72 83.85 12/05/2020 07:03:15 -73.79,-111.63 83.84 2.55 43
7 12/05/2020 07:53:27 73.85, 55.79 96.23 12/05/2020 07:53:54 73.85, 55.83 96.22 1.56 27
8 12/08/2020 02:38:12 -73.79, -45.27 83.53 12/08/2020 02:37:37 -73.78, -45.25 83.53 1.08 35
9 12/08/2020 03:27:41 73.85, 122.23 96.55 12/08/2020 03:28:16 73.84, 122.22 96.53 1.70 35
10 12/10/2020 22:12:27 -73.79, 21.15 83.26 12/10/2020 22:12:00 -73.77, 21.13 83.28 3.12 27
11 12/10/2020 23:01:56 73.86,-171.36 96.82 12/10/2020 23:02:38 73.87,-171.29 96.83 2.43 42
